Location: Unspecified
(0.0000°N, 0.0000°E)
Time: 19:12:01
(UTC+00:00)

STARLINK-30238 - Visible Passes

Search period start: 10 November 2025 00:00
Search period end: 20 November 2025 00:00
Orbit: 450 x 488 km, 43.0° (Epoch: 08 November)

Date Brightness Start Highest point End Pass type
(mag) Time Alt. Az. Time Alt. Az. Time Alt. Az.
11 Nov 3.1 04:45:07 10° SW 04:48:44 77° NW 04:52:23 10° NE visible
12 Nov 3.1 04:15:20 78° SSW 04:15:32 85° SE 04:19:11 10° NE visible
13 Nov 6.2 03:45:28 11° NE 03:45:28 11° NE 03:45:37 10° NE visible
